Location: Grums
(59.3529°N, 13.1129°E)
Time: 00:00:42
(UTC+01:00)

SEEDS - Pass Details

Date: 06 December 2021
Orbit: 584 x 600 km, 97.6° (Epoch: 27 January)

Event Time Altitude Azimuth Distance (km) Brightness Sun altitude
Rises 16:33:11 0° 198° (SSW) 2,821 ? -9.1°
Reaches altitude 10° 16:35:39 10° 212° (SSW) 1,922 ? -9.4°
Maximum altitude 16:39:08 25° 268° (W) 1,203 ? -9.8°
Drops below altitude 10° 16:42:37 10° 325° (NW) 1,927 ? -10.2°
Sets 16:45:06 0° 339° (NNW) 2,831 ? -10.5°
